{"data":{"norad_id":57094,"epoch":"2026-05-25T00:23:36.610944Z","epoch_age_seconds":80600,"freshness":"FRESH","line1":"1 57094U 23088AY  26145.01639596 -.00001833  00000+0 -57133-4 0  9992","line2":"2 57094  43.0037  25.0522 0001186 276.5075  83.5642 15.27566171162174","mean_motion":15.27566171,"eccentricity":0.0001186,"inclination_deg":43.0037,"raan_deg":25.0522,"arg_perigee_deg":276.5075,"mean_anomaly_deg":83.5642,"bstar":-5.7133e-5,"rev_number":16217,"period_min":94.267602107038,"perigee_km":482.27676377087,"apogee_km":483.90424693514,"semimajor_km":6861.227505353,"source":"CELESTRAK","updated_at":"2026-05-25T13:38:18.218699Z"}}